Flag for Germany Weather past 2 weeks in Dorsten, North Rhine-Westphalia, Germany

Now
57 °F

Fog.


Feels Like: 57 °F
Forecast: 50 / 66 °F
Wind: 2 mph from Southwest

Location: Essen

Current Time: Aug 31, 2014 at 10:30:54 AM

Latest Report: Aug 31, 2014 at 10:00 AM


Visibility: 2 mi

Pressure: 29.96 "Hg

Humidity: 99%

Dew point: 57 °F

Location of DorstenLocation

Historic Weather in Dorsten — Graph

°F

Dorsten temperature yesterday

Maximum temperature yesterday: 64 °F (at 5:00 PM)
Minimum temperature yesterday: 58 °F (at 10:00 PM)
Average temperature yesterday: 60 °F

Past Weeks' High & Low Weather Summary

 TemperatureHumidityPressure
High72 °F (Aug 28, 3:00 PM)100% (Aug 25, 10:00 PM)30.10 "Hg (Aug 25, 10:00 PM)
Low47 °F (Aug 21, 7:00 AM)46% (Aug 27, 6:00 PM)29.64 "Hg (Aug 26, 6:00 AM)
Average57 °F83%29.93 "Hg
* Reported Aug 16 9:00 AM — Aug 31 9:00 AM, Dorsten, Weather by CustomWeather, © 2014

Note: Actual official high and low records may vary slightly from our data, if they occured in-between our weather recording intervals... More about our weather records

Advertising

Dorsten weather history for previous 24 hours

 ConditionsComfort  
Time TempWeatherWind HumidityBarometerVisibility
9:00 AM
Aug 31
56 °FLow clouds.3 mph99%29.96 "Hg1 mi
8:00 AM56 °FFog.3 mph100%29.95 "Hg1 mi
7:00 AM56 °FFog.2 mph100%29.96 "Hg1 mi
6:00 AM56 °FFog.2 mph99%29.96 "Hg1 mi
5:00 AM57 °FFog.3 mph99%29.96 "Hg2 mi
4:00 AM57 °FFog.3 mph99%29.97 "Hg3 mi
3:00 AM57 °FFog.3 mph99%29.98 "Hg2 mi
2:00 AM57 °FOvercast.2 mph97%30.00 "Hg6 mi
1:00 AM57 °FOvercast.2 mph98%30.00 "Hg7 mi
12:00 AM57 °FFog.2 mph99%30.01 "Hg4 mi
11:00 PM
Aug 30
58 °FFog.2 mph99%30.01 "Hg4 mi
10:00 PM58 °FLow clouds.3 mph98%30.01 "Hg7 mi
9:00 PM58 °FLow clouds.3 mph98%30.00 "Hg16 mi
8:00 PM59 °FDrizzle. Low clouds.3 mph95%29.98 "Hg7 mi
7:00 PM62 °FLight freezing rain. Low clouds.6 mph88%29.97 "Hg2 mi
6:00 PM64 °FOvercast.6 mph78%29.98 "Hg31 mi
5:00 PM64 °FOvercast.6 mph79%29.99 "Hg31 mi
4:00 PM64 °FOvercast.5 mph80%30.00 "Hg28 mi
3:00 PM63 °FOvercast.5 mph81%30.01 "Hg25 mi
2:00 PM62 °FOvercast.5 mph85%30.01 "Hg25 mi
1:00 PM60 °FDrizzle. Low clouds.5 mph90%30.02 "Hg9 mi
12:00 PM59 °FOvercast.3 mph94%30.03 "Hg15 mi
11:00 AM60 °FLow clouds.5 mph85%30.02 "Hg19 mi
10:00 AM61 °FOvercast.6 mph80%30.01 "Hg28 mi
Weather by CustomWeather, © 2014

See weather overviewHow to use our weather pages